DW8349 Weather Reports


time (UTC)temp
C
wind
direction
speed
KPH
gust
KPH
rain 1hr
cm
rain 24hr
cm
rain mn
cm
humidity
%
barometer
mb
20260505121520 21 171 0.0 12.9 0.00 0.00 0.00 100 1008.2
20260505120024 21 162 0.0 8.0 0.00 0.00 0.00 100 1007.9
20260505114520 21 174 0.0 11.3 0.00 0.00 0.00 100 1007.7
20260505113018 21 165 0.0 12.9 0.00 0.00 0.00 100 1007.8
20260505111522 21 160 0.0 9.7 0.00 0.00 0.00 100 1007.8
20260505101509 21 167 3.2 16.1 0.00 0.00 0.00 100 1007.7
20260505100014 21 192 0.0 11.3 0.00 0.00 0.00 100 1007.7
20260505094509 20 169 1.6 20.9 0.00 0.00 0.00 100 1007.7
20260505093016 20 181 0.0 12.9 0.00 0.00 0.00 100 1007.8
20260505091502 20 246 0.0 11.3 0.00 0.00 0.00 100 1008.2
20260505090003 20 171 0.0 12.9 0.00 0.00 0.00 100 1008.3
20260505084508 20 158 1.6 20.9 0.00 0.00 0.00 100 1008.4
20260505083012 20 189 1.6 17.7 0.00 0.00 0.00 100 1008.5
20260505081514 20 169 1.6 9.7 0.00 0.00 0.00 100 1008.7
20260505080004 20 163 0.0 6.4 0.00 0.00 0.00 100 1008.7
20260505074504 20 196 0.0 8.0 0.00 0.00 0.00 100 1008.7
20260505073027 20 247 0.0 11.3 0.00 0.00 0.00 100 1008.9
20260505071514 20 174 0.0 12.9 0.00 0.00 0.00 100 1009.1
20260505070020 20 168 0.0 9.7 0.00 0.00 0.00 100 1009.3
20260505064503 20 176 0.0 9.7 0.00 0.00 0.00 100 1009.4
20260505063007 20 182 0.0 4.8 0.00 0.00 0.00 100 1009.6
20260505061520 20 168 0.0 11.3 0.00 0.00 0.00 100 1009.6
20260505060016 20 168 0.0 4.8 0.00 0.00 0.00 100 1009.5
20260505054520 20 163 0.0 9.7 0.00 0.00 0.00 100 1009.7
20260505053004 20 164 0.0 4.8 0.00 0.00 0.00 100 1009.6
20260505051526 20 157 0.0 6.4 0.00 0.00 0.00 100 1009.9
20260505041509 21 160 0.0 9.7 0.00 0.00 0.00 100 1010.0
20260505040014 21 146 1.6 17.7 0.00 0.00 0.00 100 1010.2
20260505034514 21 178 0.0 11.3 0.00 0.00 0.00 100 1010.0
20260505033022 21 147 0.0 9.7 0.00 0.00 0.00 100 1009.8
20260505031531 21 148 0.0 6.4 0.00 0.00 0.00 4 1009.7
20260505030009 21 147 0.0 0.0 0.00 0.00 0.00 10 1009.5
20260505024516 21 147 0.0 0.0 0.00 0.00 0.00 20 1009.5
20260505023022 21 146 0.0 6.4 0.00 0.00 0.00 25 1009.7
20260505021526 22 176 0.0 0.0 0.00 0.00 0.00 35 1009.7
20260505020030 22 176 0.0 0.0 0.00 0.00 0.00 47 1009.5
20260505014513 23 176 0.0 0.0 0.00 0.00 0.00 52 1009.4
20260505013022 23 176 0.0 0.0 0.00 0.00 0.00 52 1009.2
20260505011526 23 176 0.0 0.0 0.00 0.00 0.00 54 1009.1
20260505010016 23 176 0.0 4.8 0.00 0.00 0.00 55 1009.0
20260505004512 24 172 0.0 4.8 0.00 0.00 0.00 56 1009.0
20260505003015 24 172 0.0 1.6 0.00 0.00 0.00 56 1009.1
20260505001503 25 172 0.0 4.8 0.00 0.00 0.00 56 1009.2
20260505000007 25 166 1.6 8.0 0.00 0.00 0.00 55 1009.1
20260504234507 25 185 0.0 0.0 0.00 0.00 0.00 55 1009.5
20260504233013 25 157 0.0 14.5 0.00 0.00 0.00 53 1009.4
20260504231519 26 174 1.6 17.7 0.00 0.00 0.00 52 1009.6
20260504230005 26 160 3.2 17.7 0.00 0.00 0.00 51 1009.7
20260504224506 26 164 1.6 17.7 0.00 0.00 0.00 50 1009.9
20260504223012 27 170 0.0 11.3 0.00 0.00 0.00 49 1010.0
20260504221535 27 151 4.8 20.9 0.00 0.00 0.00 48 1010.2
20260504220023 27 209 1.6 19.3 0.00 0.00 0.00 48 1010.2
20260504214504 27 179 3.2 20.9 0.00 0.00 0.00 47 1010.6
20260504213008 27 269 1.6 19.3 0.00 0.00 0.00 46 1011.0
20260504211514 27 167 0.0 14.5 0.00 0.00 0.00 47 1011.1
20260504210022 27 193 4.8 16.1 0.00 0.00 0.00 48 1011.5
20260504204528 27 167 0.0 12.9 0.00 0.00 0.00 47 1012.0
20260504203008 26 157 4.8 19.3 0.00 0.00 0.00 46 1012.1
20260504201512 27 160 0.0 16.1 0.00 0.00 0.00 46 1012.3
20260504200018 26 164 3.2 14.5 0.00 0.00 0.00 45 1012.7
20260504194529 26 170 0.0 17.7 0.00 0.00 0.00 46 1013.0
20260504193026 26 174 1.6 16.1 0.00 0.00 0.00 46 1013.2
20260504191507 26 195 3.2 17.7 0.00 0.00 0.00 47 1013.4
20260504190016 26 206 1.6 14.5 0.00 0.00 0.00 45 1013.6
20260504184519 26 150 4.8 19.3 0.00 0.00 0.00 46 1013.7
20260504183026 25 245 0.0 19.3 0.00 0.00 0.00 46 1014.1
20260504181527 25 153 3.2 20.9 0.00 0.00 0.00 47 1014.4
20260504180016 25 173 1.6 19.3 0.00 0.00 0.00 47 1014.4
20260504174518 25 193 4.8 20.9 0.00 0.00 0.00 48 1014.7
20260504173022 25 158 3.2 16.1 0.00 0.00 0.00 49 1015.2
20260504171530 24 152 4.8 19.3 0.00 0.00 0.00 49 1015.1